ラーセン彗星

200P/Larsen (2019)

English version
Home page
Updated on December 9, 2019

---------------------------------------------------------------------

・ プロフィール

・ 写真集

・ 軌道要素

Epoch 2019 July 16.0 TT = JDT 2458680.5
T 2019 July 28.53625 TT                                 Williams
q   3.2972404            (2000.0)            P               Q
n   0.08993031     Peri.  133.98358     +0.97519195     -0.14011444
a   4.9339945      Node   234.80182     +0.08856837     +0.95648214
e   0.3317300      Incl.   12.10575     +0.20287018     +0.25594895
P  11.0
From 555 observations 1997 Nov. 3-2019 Nov. 5, mean residual 0".5.

・ 光度変化

        m1 = 13.0 + 5 logΔ + 10.0 log r

        ※ 灰色の曲線は、m1 = -5 + 5 logΔ + 40 log r の光度曲線です。

---------------------------------------------------------------------

軌道要素はM.P.E.C. 2019-V116に掲載されたものです。
光度グラフはComet for Windowsで作成したものです。

---------------------------------------------------------------------

Copyright(C) Seiichi Yoshida (comet@aerith.net). All rights reserved.